KD2DXJ Weather Reports


time (UTC)temp
C
wind
direction
speed
KPH
gust
KPH
rain 1hr
cm
rain 24hr
cm
rain mn
cm
humidity
%
barometer
mb
20260504050531 7 247 1.6 1.6 0.00 0.00 0.00 92 1007.0
20260504045525 7 246 3.2 4.8 0.00 0.00 0.00 92 1006.9
20260504045020 7 249 6.4 6.4 0.00 0.00 0.00 92 1007.0
20260504044518 7 246 1.6 3.2 0.00 0.00 0.00 91 1007.0
20260504044015 7 246 3.2 4.8 0.00 0.00 0.00 91 1007.0
20260504043511 7 248 3.2 3.2 0.00 0.00 0.00 90 1007.3
20260504043009 7 246 3.2 3.2 0.00 0.00 0.00 90 1007.1
20260504042506 7 253 3.2 3.2 0.00 0.00 0.00 90 1007.3
20260504042003 7 254 1.6 3.2 0.00 0.00 0.00 90 1007.3
20260504041459 7 238 3.2 4.8 0.00 0.00 0.00 90 1007.1
20260504040955 7 238 3.2 3.2 0.00 0.00 0.00 89 1007.1
20260504040452 7 235 3.2 4.8 0.00 0.00 0.00 89 1007.0
20260504035948 7 260 1.6 3.2 0.00 0.00 0.00 89 1007.1
20260504035446 7 256 1.6 3.2 0.00 0.00 0.00 88 1007.1
20260504034942 7 256 3.2 3.2 0.00 0.00 0.00 88 1006.9
20260504034440 7 256 3.2 4.8 0.00 0.00 0.00 88 1007.1
20260504033937 7 245 3.2 4.8 0.00 0.00 0.00 88 1007.2
20260504033434 7 244 8.0 12.9 0.00 0.00 0.00 87 1007.3
20260504032931 7 237 4.8 9.7 0.00 0.00 0.00 87 1007.3
20260504032428 7 265 6.4 6.4 0.00 0.00 0.00 86 1007.2
20260504031925 7 254 3.2 6.4 0.00 0.00 0.00 86 1007.3
20260504031422 7 243 6.4 11.3 0.00 0.00 0.00 85 1007.2
20260504030919 7 238 4.8 6.4 0.00 0.00 0.00 83 1007.3
20260504030416 7 241 6.4 6.4 0.00 0.00 0.00 82 1007.4
20260504025912 7 255 4.8 4.8 0.00 0.00 0.00 81 1007.3
20260504025409 7 238 4.8 6.4 0.00 0.00 0.00 79 1007.3
20260504024906 8 238 6.4 9.7 0.00 0.00 0.00 76 1007.5
20260504024402 8 256 6.4 11.3 0.00 0.00 0.00 71 1007.4
20260504023900 8 242 4.8 6.4 0.00 0.00 0.00 68 1007.5
20260504023356 8 237 4.8 4.8 0.00 0.00 0.00 67 1007.5
20260504022851 8 253 6.4 9.7 0.00 0.00 0.00 66 1007.5
20260504022348 8 235 1.6 1.6 0.00 0.00 0.00 64 1007.6
20260504021845 8 253 4.8 4.8 0.00 0.00 0.00 64 1007.6
20260504021342 8 238 1.6 3.2 0.00 0.00 0.00 62 1007.7
20260504020839 8 253 1.6 3.2 0.00 0.00 0.00 61 1007.7
20260504020336 8 253 3.2 3.2 0.00 0.00 0.00 60 1007.9
20260504015832 8 253 1.6 3.2 0.00 0.00 0.00 59 1007.8
20260504015328 8 253 3.2 4.8 0.00 0.00 0.00 57 1007.9
20260504014825 8 253 3.2 3.2 0.00 0.00 0.00 58 1007.9
20260504014320 8 253 1.6 3.2 0.00 0.00 0.00 57 1007.9
20260504013819 8 253 3.2 3.2 0.00 0.00 0.00 56 1008.1
20260504013316 8 253 3.2 3.2 0.00 0.00 0.00 55 1008.0
20260504012813 8 254 1.6 4.8 0.00 0.00 0.00 56 1007.8
20260504012311 8 239 4.8 4.8 0.00 0.00 0.00 53 1008.1
20260504011808 8 256 3.2 4.8 0.00 0.00 0.00 56 1008.0
20260504011304 8 262 4.8 6.4 0.00 0.00 0.00 53 1007.8
20260504010800 8 260 3.2 4.8 0.00 0.00 0.00 51 1007.9
20260504010256 8 255 4.8 6.4 0.00 0.00 0.00 50 1007.9
20260504005753 9 260 3.2 4.8 0.00 0.00 0.00 48 1007.7
20260504005249 9 243 4.8 4.8 0.00 0.00 0.00 46 1007.9
20260504004747 9 241 6.4 6.4 0.00 0.00 0.00 46 1007.6
20260504004244 9 236 4.8 6.4 0.00 0.00 0.00 44 1007.7
20260504003740 9 274 4.8 6.4 0.00 0.00 0.00 45 1007.9
20260504003238 9 238 6.4 6.4 0.00 0.00 0.00 45 1007.7
20260504002734 9 243 6.4 6.4 0.00 0.00 0.00 45 1007.7
20260504002231 9 248 8.0 11.3 0.00 0.00 0.00 45 1007.6
20260504001729 9 250 6.4 6.4 0.00 0.00 0.00 45 1007.6
20260504001226 9 243 4.8 4.8 0.00 0.00 0.00 45 1007.9
20260504000722 9 258 4.8 4.8 0.00 0.00 0.00 45 1007.7
20260504000219 10 248 6.4 9.7 0.00 0.00 0.00 45 1007.6
20260503235718 10 297 4.8 9.7 0.00 0.00 0.00 44 1007.9
20260503235214 9 259 4.8 6.4 0.00 0.00 0.00 44 1007.8
20260503234712 10 251 4.8 4.8 0.00 0.00 0.00 45 1007.7
20260503234210 10 246 4.8 4.8 0.00 0.00 0.00 44 1007.7
20260503233707 10 247 4.8 6.4 0.00 0.00 0.00 44 1007.9
20260503233203 10 243 1.6 3.2 0.00 0.00 0.00 45 1007.8
20260503232700 10 252 6.4 6.4 0.00 0.00 0.00 43 1007.9
20260503232157 10 234 4.8 4.8 0.00 0.00 0.00 44 1007.8
20260503231655 10 264 4.8 6.4 0.00 0.00 0.00 44 1007.8
20260503231151 10 264 6.4 9.7 0.00 0.00 0.00 43 1007.9
20260503230648 10 262 4.8 4.8 0.00 0.00 0.00 45 1007.8
20260503230145 10 268 1.6 1.6 0.00 0.00 0.00 44 1007.9
20260503225642 11 246 9.7 9.7 0.00 0.00 0.00 41 1007.8
20260503225142 10 257 6.4 6.4 0.00 0.00 0.00 43 1008.0
20260503224640 10 262 1.6 1.6 0.00 0.00 0.00 43 1007.9
20260503224138 10 257 6.4 11.3 0.00 0.00 0.00 42 1007.9
20260503223636 11 256 3.2 4.8 0.00 0.00 0.00 42 1008.0
20260503223132 11 265 1.6 4.8 0.00 0.00 0.00 43 1007.9
20260503222629 10 241 4.8 6.4 0.00 0.00 0.00 42 1008.0
20260503222126 10 258 4.8 4.8 0.00 0.00 0.00 45 1007.9
20260503221625 10 252 4.8 4.8 0.00 0.00 0.00 45 1008.2
20260503221122 10 249 6.4 6.4 0.00 0.00 0.00 46 1008.1
20260503220619 10 241 9.7 11.3 0.00 0.00 0.00 45 1008.1
20260503220115 11 252 8.0 9.7 0.00 0.00 0.00 44 1008.1
20260503215612 11 246 8.0 11.3 0.00 0.00 0.00 43 1008.1
20260503215109 11 223 3.2 6.4 0.00 0.00 0.00 44 1008.1
20260503214608 11 252 4.8 6.4 0.00 0.00 0.00 44 1008.3
20260503214103 11 248 8.0 9.7 0.00 0.00 0.00 43 1008.1
20260503213602 11 237 4.8 6.4 0.00 0.00 0.00 44 1008.3
20260503213058 11 234 9.7 14.5 0.00 0.00 0.00 45 1008.3
20260503212556 10 245 8.0 11.3 0.00 0.00 0.00 44 1008.4
20260503212053 10 282 8.0 16.1 0.00 0.00 0.00 44 1008.4
20260503211550 11 257 4.8 4.8 0.00 0.00 0.00 44 1008.4
20260503211045 11 241 9.7 11.3 0.00 0.00 0.00 43 1008.5
20260503210543 11 239 3.2 4.8 0.00 0.00 0.00 43 1008.5
20260503210038 11 231 8.0 11.3 0.00 0.00 0.00 42 1008.5
20260503205535 11 245 9.7 12.9 0.00 0.00 0.00 40 1008.7
20260503205032 11 256 1.6 3.2 0.00 0.00 0.00 39 1008.5
20260503204529 11 260 6.4 9.7 0.00 0.00 0.00 41 1008.7
20260503204026 11 265 0.0 0.0 0.00 0.00 0.00 40 1008.8
20260503203523 11 258 3.2 3.2 0.00 0.00 0.00 45 1008.7
20260503203020 11 274 1.6 1.6 0.00 0.00 0.00 42 1008.8
20260503202518 11 255 3.2 4.8 0.00 0.00 0.00 41 1008.8
20260503202015 12 267 4.8 6.4 0.00 0.00 0.00 39 1008.8
20260503201514 11 318 6.4 9.7 0.00 0.00 0.00 38 1008.6
20260503201010 11 245 4.8 4.8 0.00 0.00 0.00 39 1008.7
20260503200507 11 255 9.7 11.3 0.00 0.00 0.00 36 1008.7
20260503200003 12 236 6.4 6.4 0.00 0.00 0.00 37 1008.9
20260503195500 12 272 3.2 3.2 0.00 0.00 0.00 38 1008.8
20260503194957 12 287 1.6 3.2 0.00 0.00 0.00 37 1008.8
20260503194455 12 238 8.0 16.1 0.00 0.00 0.00 36 1009.1
20260503193949 11 282 3.2 9.7 0.00 0.00 0.00 38 1009.1
20260503193445 13 276 3.2 3.2 0.00 0.00 0.00 36 1009.2
20260503192940 12 265 1.6 3.2 0.00 0.00 0.00 40 1009.2
20260503192437 11 251 6.4 9.7 0.00 0.00 0.00 42 1009.2
20260503191933 11 259 1.6 1.6 0.00 0.00 0.00 38 1009.2
20260503191431 12 257 3.2 4.8 0.00 0.00 0.00 37 1009.3
20260503190927 11 248 6.4 9.7 0.00 0.00 0.00 39 1009.1
20260503190425 11 274 6.4 9.7 0.00 0.00 0.00 38 1009.3
20260503185921 11 254 3.2 4.8 0.00 0.00 0.00 41 1009.3
20260503185418 11 259 0.0 0.0 0.00 0.00 0.00 39 1009.5
20260503184916 12 250 0.0 3.2 0.00 0.00 0.00 47 1009.4
20260503184414 11 252 3.2 6.4 0.00 0.00 0.00 42 1009.6
20260503183910 10 240 3.2 6.4 0.00 0.00 0.00 43 1009.4
20260503183407 11 254 3.2 4.8 0.00 0.00 0.00 42 1009.6
20260503182904 12 239 6.4 9.7 0.00 0.00 0.00 44 1009.5
20260503182403 12 277 1.6 3.2 0.00 0.00 0.00 41 1009.6
20260503181859 12 321 0.0 1.6 0.00 0.00 0.00 44 1009.5
20260503181356 11 247 4.8 6.4 0.00 0.00 0.00 42 1009.6
20260503180853 12 248 4.8 11.3 0.00 0.00 0.00 40 1009.6
20260503180351 11 231 6.4 6.4 0.00 0.00 0.00 39 1009.6
20260503175847 12 271 0.0 1.6 0.00 0.00 0.00 40 1009.7
20260503175345 11 257 1.6 1.6 0.00 0.00 0.00 44 1009.6
20260503174841 10 266 0.0 0.0 0.00 0.00 0.00 42 1009.9
20260503174340 10 301 0.0 0.0 0.00 0.00 0.00 41 1009.8
20260503173839 11 262 0.0 1.6 0.00 0.00 0.00 41 1009.9
20260503173336 11 260 3.2 3.2 0.00 0.00 0.00 42 1010.2
20260503172833 11 270 0.0 1.6 0.00 0.00 0.00 39 1010.0
20260503172331 11 281 1.6 3.2 0.00 0.00 0.00 41 1010.0
20260503171826 11 281 0.0 0.0 0.00 0.00 0.00 37 1010.2
20260503171324 11 261 0.0 1.6 0.00 0.00 0.00 38 1009.9
20260503170821 10 259 3.2 4.8 0.00 0.00 0.00 45 1010.2
20260503170317 10 270 0.0 0.0 0.00 0.00 0.00 41 1010.0
20260503150710 10 253 4.8 9.7 0.00 0.00 0.00 46 1011.3
20260503150206 10 249 3.2 6.4 0.00 0.00 0.00 51 1011.3
20260503140130 9 251 1.6 3.2 0.00 0.00 0.00 47 1011.9
20260503131059 7 251 1.6 1.6 0.00 0.00 0.00 61 1012.3
20260503130556 7 256 1.6 3.2 0.00 0.00 0.00 59 1012.6
20260503110447 3 242 0.0 0.0 0.00 0.00 0.00 89 1011.1
20260503090338 2 241 0.0 0.0 0.00 0.00 0.00 94 1011.1
20260503081306 2 241 0.0 0.0 0.00 0.00 0.00 95 1011.1
20260503080801 2 241 0.0 0.0 0.00 0.00 0.00 95 1011.1
20260503080259 2 241 0.0 0.0 0.00 0.00 0.00 95 1011.3
20260503072736 2 242 0.0 0.0 0.00 0.00 0.00 94 1011.2
20260503072232 2 242 0.0 0.0 0.00 0.00 0.00 94 1011.2
20260503071729 2 241 0.0 0.0 0.00 0.00 0.00 93 1011.1
20260503071226 3 242 0.0 0.0 0.00 0.00 0.00 93 1011.1
20260503070722 3 241 0.0 0.0 0.00 0.00 0.00 93 1011.1
20260503070220 3 242 0.0 0.0 0.00 0.00 0.00 93 1011.1
20260503060145 3 242 0.0 0.0 0.00 0.00 0.00 92 1011.5
20260503054632 3 242 0.0 0.0 0.00 0.00 0.00 91 1011.6
20260503054129 3 242 0.0 0.0 0.00 0.00 0.00 91 1011.5